Weather History for Hartford, CT

Change the Weather History Date:

Saturday, February 16, 2013

  Actual Average Record
Temperature  
Mean Temperature 34 °F -  
Max Temperature 37 °F 39 °F 72 °F (1954)
Min Temperature 30 °F 19 °F -24 °F (1943)
Degree Days  
Heating Degree Days 32    
Moisture  
Dew Point 27 °F    
Average Humidity 76    
Maximum Humidity 96    
Minimum Humidity 44    
Precipitation  
Precipitation 0.03 in - - ()
Sea Level Pressure  
Sea Level Pressure 29.92 in    
Wind  
Wind Speed 8 mph (North)    
Max Wind Speed 14 mph    
Max Gust Speed 23 mph    
Visibility 6 miles    
Events Snow    
Averages and records for this station are not official NWS values.
T = Trace of Precipitation, MM = Missing Value Source: NWS Daily Summary

Daily Weather History Graph

Daily Weather History Graph

Search for Another Location

Airport:

Trip Planner

Search our weather history database for the weather conditions in past years. The results will help you decide how hot, cold, wet, or windy it might be!

Date:

Astronomy

Feb. 16, 2013 Rise Set
Actual Time 6:44 AM EST 5:25 PM EST
Civil Twilight 6:15 AM EST 5:53 PM EST
Nautical Twilight 5:43 AM EST 6:26 PM EST
Astronomical Twilight 5:11 AM EST 6:58 PM EST
Moon 9:49 AM EST (2/16) No Moon Set
Length of Visible Light 11h 37m
Length of Day
10h 41m
Waxing Crescent, 39% of the Moon is Illuminated
Feb 16
Waxing Crescent
Feb 17
First Quarter
Feb 25
Full
Mar 4
Last Quarter
Mar 11
New

Hourly Weather History & Observations

Time (EST) Temp. Windchill Dew Point Humidity Pressure Visibility Wind Dir Wind Speed Gust Speed Precip Events Conditions
12:53 AM 37.9 °F 33.5 °F 32.0 °F 79% 29.94 in 8.0 mi North 5.8 mph - 0.00 in   Overcast
1:53 AM 37.9 °F 30.0 °F 28.0 °F 68% 29.97 in 10.0 mi NNW 12.7 mph 18.4 mph 0.00 in Snow Light Snow
2:39 AM 33.8 °F 26.4 °F 30.2 °F 87% 29.97 in 2.5 mi NNW 9.2 mph - 0.00 in Snow Light Snow
2:53 AM 34.0 °F 26.6 °F 32.0 °F 92% 29.97 in 2.5 mi North 9.2 mph - 0.00 in Snow Light Snow
3:03 AM 33.8 °F 29.6 °F 32.0 °F 93% 29.97 in 2.0 mi North 4.6 mph - 0.00 in Snow Light Snow
3:37 AM 33.8 °F 28.6 °F 32.0 °F 93% 29.96 in 3.0 mi North 5.8 mph - 0.01 in Snow Light Snow
3:44 AM 33.8 °F 25.8 °F 32.0 °F 93% 29.95 in 4.0 mi North 10.4 mph - 0.01 in Snow Light Snow
3:53 AM 34.0 °F 27.2 °F 32.0 °F 92% 29.95 in 3.0 mi North 8.1 mph - 0.01 in Snow Light Snow
4:03 AM 33.8 °F 27.7 °F 32.0 °F 93% 29.95 in 3.0 mi North 6.9 mph - 0.00 in Snow Light Snow
4:24 AM 33.8 °F 27.0 °F 32.0 °F 93% 29.95 in 1.8 mi North 8.1 mph - 0.00 in Snow Light Snow
4:53 AM 33.1 °F 27.7 °F 32.0 °F 96% 29.96 in 1.0 mi North 5.8 mph - 0.02 in Snow Light Snow
5:25 AM 33.8 °F 28.6 °F 30.2 °F 87% 29.96 in 2.0 mi North 5.8 mph - 0.00 in Snow Light Snow
5:50 AM 32.0 °F 26.4 °F 30.2 °F 93% 29.94 in 1.5 mi North 5.8 mph - 0.00 in Snow Light Snow
5:53 AM 32.0 °F 26.4 °F 30.0 °F 92% 29.95 in 1.5 mi North 5.8 mph - 0.00 in Snow Light Snow
6:08 AM 32.0 °F 24.8 °F 30.2 °F 93% 29.95 in 3.0 mi North 8.1 mph - 0.00 in Snow Light Snow
6:53 AM 32.0 °F 28.7 °F 30.0 °F 92% 29.97 in 8.0 mi North 3.5 mph - 0.00 in   Overcast
7:10 AM 32.0 °F 25.6 °F 30.2 °F 93% 29.96 in 10.0 mi NNW 6.9 mph - N/A   Overcast
7:16 AM 33.8 °F 28.6 °F 30.2 °F 87% 29.96 in 10.0 mi North 5.8 mph - N/A   Overcast
7:53 AM 33.1 °F 27.7 °F 30.0 °F 89% 29.96 in 6.0 mi NNW 5.8 mph - 0.00 in Snow Light Snow
8:28 AM 32.0 °F 26.4 °F 28.4 °F 87% 29.96 in 2.5 mi North 5.8 mph - 0.00 in Snow Light Snow
8:37 AM 32.0 °F 26.4 °F 30.2 °F 93% 29.96 in 3.0 mi NNW 5.8 mph - 0.00 in Snow Light Snow
8:53 AM 33.1 °F 27.7 °F 30.0 °F 89% 29.96 in 6.0 mi NNW 5.8 mph - 0.00 in   Overcast
9:05 AM 33.8 °F 28.6 °F 30.2 °F 87% 29.95 in 4.0 mi North 5.8 mph - 0.00 in Snow Light Snow
9:15 AM 33.8 °F 28.6 °F 30.2 °F 87% 29.96 in 3.0 mi North 5.8 mph - 0.00 in Snow Light Snow
9:36 AM 33.8 °F 28.6 °F 28.4 °F 81% 29.95 in 7.0 mi NNW 5.8 mph - 0.00 in Snow Light Snow
9:43 AM 33.8 °F 29.6 °F 28.4 °F 81% 29.96 in 9.0 mi North 4.6 mph - 0.00 in   Overcast
9:53 AM 33.1 °F 26.1 °F 28.0 °F 82% 29.96 in 10.0 mi NNW 8.1 mph - 0.00 in   Overcast
10:53 AM 34.0 °F 24.6 °F 24.1 °F 67% 29.94 in 10.0 mi NNW 13.8 mph - 0.00 in   Overcast
11:53 AM 36.0 °F 30.3 °F 21.9 °F 57% 29.92 in 10.0 mi North 6.9 mph - N/A   Mostly Cloudy
12:53 PM 37.0 °F 30.4 °F 19.0 °F 48% 29.90 in 10.0 mi North 9.2 mph - N/A   Mostly Cloudy
1:53 PM 37.9 °F 34.4 °F 19.0 °F 47% 29.88 in 10.0 mi Variable 4.6 mph - N/A   Overcast
2:53 PM 37.9 °F 32.7 °F 19.0 °F 47% 29.86 in 10.0 mi North 6.9 mph - N/A   Partly Cloudy
3:53 PM 37.9 °F 32.1 °F 21.9 °F 53% 29.83 in 10.0 mi NNE 8.1 mph - N/A   Overcast
4:53 PM 37.9 °F 31.5 °F 18.0 °F 45% 29.84 in 10.0 mi North 9.2 mph - N/A   Overcast
5:53 PM 36.0 °F 29.0 °F 16.0 °F 44% 29.83 in 10.0 mi NNW 9.2 mph - N/A   Overcast
6:53 PM 35.1 °F 29.3 °F 16.0 °F 46% 29.83 in 10.0 mi North 6.9 mph - N/A   Overcast
7:53 PM 35.1 °F 26.9 °F 16.0 °F 46% 29.82 in 10.0 mi NNW 11.5 mph - N/A   Overcast
8:53 PM 34.0 °F 25.0 °F 18.0 °F 52% 29.82 in 10.0 mi NNW 12.7 mph 21.9 mph N/A   Overcast
9:53 PM 32.0 °F 22.1 °F 19.9 °F 61% 29.80 in 10.0 mi NNW 13.8 mph 23.0 mph N/A   Overcast
10:53 PM 30.9 °F 20.7 °F 19.9 °F 64% 29.77 in 10.0 mi North 13.8 mph 21.9 mph N/A   Overcast
11:53 PM 30.0 °F 20.5 °F 19.0 °F 64% 29.73 in 10.0 mi North 11.5 mph 23.0 mph N/A   Overcast